• Join FlightAware (Why Join?)
  • Login
  • US Flag 
10:24AM EST


 

Airport Tracker/Info


-or-


 

Live Flight TrackerFlight Track Log ✈ EGF4247 ✈ 27-Apr-2013 ✈ KBUF - KORD

Flight Track Log - Related Links

Times and Time Zones

All times are in EDT time to prevent confusion due to time zone crossing. See the EGF4247 flight status page for this flight to view local times or setup timezone preferences in your user account.

Time Position Orientation Groundspeed Altitude Reporting Facility
EDT Latitude Longitude Course Direction KTS MPH feet Rate Location/Type
03:50PM 42.9167 -78.7500 270° West 168 193 1,500  Level Buffalo TRACON
03:51PM 42.9000 -78.8333 255° West 216 249 4,200 2,045 Climbing Buffalo TRACON
03:52PM 42.9521 -79.0920 277° West  Level FlightAware Approximate
03:52PM 42.9167 -78.9167 285° West 250 288 6,000  Level Buffalo TRACON
03:52PM 42.9167 -78.9500 270° West 240 276 7,200 2,483 Climbing Toronto Center
03:53PM 42.9626 -79.2173 277° West  Level FlightAware Approximate
03:53PM 42.9167 -79.0333 270° West 260 299 9,600  Level Toronto Center
03:54PM 42.9667 -79.3431 270° West  Level FlightAware Approximate
03:54PM 42.9167 -79.1500 270° West 270 311 11,400  Level Toronto Center
03:55PM 42.9667 -79.4692 270° West  Level FlightAware Approximate
03:55PM 42.9333 -79.2500 283° West 300 345 12,700  Level Toronto Center
03:56PM 42.9333 -79.3833 270° West 320 368 14,200 1,450 Climbing Toronto Center
03:57PM 42.9500 -79.5167 280° West 330 380 15,600 1,300 Climbing Toronto Center
03:58PM 42.9500 -79.6333 270° West 340 391 16,800 1,150 Climbing Toronto Center
03:59PM 42.9500 -79.7667 270° West 360 414 17,900 1,050 Climbing Toronto Center
04:00PM 42.9667 -79.9000 280° West 360 414 18,900 1,100 Climbing Toronto Center
04:01PM 42.9667 -80.0500 270° West 370 426 20,100 1,200 Climbing Toronto Center
04:02PM 42.9833 -80.1833 280° West 380 437 21,300 1,250 Climbing Toronto Center
04:03PM 42.9833 -80.3333 270° West 380 437 22,600 1,200 Climbing Toronto Center
04:04PM 42.9833 -80.4833 270° West 380 437 23,700 1,250 Climbing Toronto Center
04:05PM 42.9833 -80.6167 270° West 370 426 25,100 1,300 Climbing Toronto Center
04:06PM 42.9833 -80.7500 270° West 370 426 26,300 1,350 Climbing Toronto Center
04:07PM 42.9667 -80.9167 262° West 360 414 27,800 850 Climbing Toronto Center
04:08PM 42.9667 -81.0167 270° West 360 414 28,000 100 Climbing Toronto Center
04:09PM 42.9667 -81.1833 270° West 360 414 28,000  Level Toronto Center
04:10PM 42.9667 -81.3167 270° West 370 426 28,000  Level Toronto Center
04:11PM 42.9833 -81.4500 280° West 370 426 28,000  Level Toronto Center
04:12PM 42.9833 -81.6000 270° West 370 426 28,000  Level Toronto Center
04:13PM 42.9833 -81.7333 270° West 370 426 28,000  Level Toronto Center
04:14PM 42.9833 -81.8833 270° West 390 449 28,000  Level Toronto Center
04:15PM 42.9667 -82.0333 261° West 400 460 28,000  Level Toronto Center
04:16PM 42.9667 -82.1833 270° West 400 460 28,000  Level Toronto Center
04:17PM 42.9667 -82.3500 270° West 400 460 28,000  Level Toronto Center
04:18PM 42.9833 -82.5000 279° West 400 460 28,000  Level Toronto Center
04:19PM 42.9836 -82.6492 270° West 399 459 28,000  Level Cleveland Center
04:20PM 42.9783 -82.8108 268° West 404 465 28,000  Level Cleveland Center
04:21PM 42.9711 -82.9667 266° West 409 471 28,000  Level Cleveland Center
04:22PM 42.9636 -83.1308 266° West 423 487 28,000  Level Cleveland Center
04:23PM 42.9558 -83.2894 266° West 423 487 28,000  Level Cleveland Center
04:24PM 42.9475 -83.4536 266° West 423 487 28,000  Level Cleveland Center
04:25PM 42.9392 -83.6150 266° West 429 494 28,000  Level Cleveland Center
04:26PM 42.9286 -83.7789 265° West 429 494 28,000  Level Cleveland Center
04:27PM 42.9200 -83.9372 266° West 434 499 28,000  Level Cleveland Center
04:28PM 42.9111 -84.0986 266° West 434 499 28,000  Level Cleveland Center
04:29PM 42.9019 -84.2539 265° West 422 486 28,000  Level Cleveland Center
04:30PM 42.8944 -84.4236 267° West 417 480 28,000  Level Cleveland Center
04:32PM 42.8842 -84.5767 265° West 423 487 28,000  Level Chicago Center
04:33PM 42.8692 -84.7361 263° West 424 488 28,000  Level Chicago Center
04:34PM 42.8483 -84.9269 262° West 425 489 28,000  Level Chicago Center
04:35PM 42.8322 -85.0839 262° West 421 484 28,000  Level Chicago Center
04:36PM 42.8150 -85.2422 262° West 422 486 28,000  Level Chicago Center
04:37PM 42.7972 -85.3994 261° West 420 483 28,000 -244 Level Chicago Center
04:38PM 42.7769 -85.5597 260° West 425 489 27,500 -1,161 Descending Chicago Center
04:39PM 42.7464 -85.7203 256° West 434 499 25,600 -1,887 Descending Chicago Center
04:40PM 42.7183 -85.8794 257° West 431 496 23,600 -1,935 Descending Chicago Center
04:41PM 42.6894 -86.0314 256° West 416 479 21,600 -1,707 Descending Chicago Center
04:42PM 42.6633 -86.1808 257° West 407 468 20,100 -780 Descending Chicago Center
04:43PM 42.6286 -86.3572 255° West 402 463 20,000 -532 Descending Chicago Center
04:44PM 42.6019 -86.5042 256° West 400 460 19,000 -1,500 Descending Chicago Center
04:45PM 42.5739 -86.6478 255° West 395 455 16,900 -2,129 Descending Chicago Center
04:46PM 42.5478 -86.7836 255° West 379 436 14,600 -2,274 Descending Chicago Center
04:47PM 42.5106 -86.9083 248° West 361 415 12,200 -1,756 Descending Chicago Center
04:48PM 42.4767 -87.0306 249° West 350 403 11,000 -585 Descending Chicago Center
04:49PM 42.4425 -87.1511 249° West 346 398 11,000 -290 Level Chicago Center
04:50PM 42.4103 -87.2742 251° West 293 337 10,400 -919 Descending Chicago Center
04:51PM 42.3781 -87.3761 247° West 293 337 9,100 -774 Descending Chicago Center
04:52PM 42.3353 -87.4614 236° Southwest 283 326 8,800 -726 Descending Chicago Center
04:53PM 42.2950 -87.5506 239° Southwest 279 321 7,600 -1,073 Descending Chicago Center
04:54PM 42.2492 -87.6203 228° Southwest 252 290 6,600 -1,122 Descending Chicago Center
04:55PM 42.1928 -87.6814 219° Southwest 215 247 5,300 -1,258 Descending Chicago Center